Regional Weather Roundup
Issued by NWS

Home | Current Version | Previous Version | Graphics & Text | Print | Product List | Glossary On
Versions: 1 2 3 4 5 6 7 8 9 10 11 12 13 14 15 16 17 18 19 20 21 22 23 24 25 26 27 28 29 30 31 32 33 34 35 36 37 38 39 40 41 42 43 44 45 46 47 48 49 50
000
ASUS43 KIND 251209
RWRIN

WEATHER ROUNDUP FOR INDIANA
NATIONAL WEATHER SERVICE INDIANAPOLIS IN
800 AM EDT SAT APR 25 2015

NOTE: "FAIR" INDICATES FEW OR NO CLOUDS BELOW 12,000 FEET WITH NO
SIGNIFICANT WEATHER AND/OR OBSTRUCTIONS TO VISIBILITY.

* - STATION DOES NOT REPORT WEATHER SUCH AS PRECIPITATION OR FOG.

+ - STATION NOT QUALITY CONTROLLED BY THE NATIONAL WEATHER SERVICE.
    USE DATA WITH CAUTION...ESPECIALLY DEWPOINT AND RELATIVE
    HUMIDITY OBSERVATIONS.

INZ001>003-010>013-019-020-251300-
NORTHWEST INDIANA

CITY           SKY/WX    TMP DP  RH WIND       PRES   REMARKS
GARY /AIRPORT/ LGT RAIN  46  36  66 E12G23    29.81R
KNOX *+        CLOUDY    43  30  61 E14       29.80S
LA PORTE +     LGT RAIN  45  39  82 E14G21    29.82S
6HR MIN TEMP:  45; 6HR MAX TEMP:  46;

MICHIGAN CITY+ CLOUDY    45  32  61 E8        29.82S
MONTICELLO +   LGT RAIN  44  42  92 E8        29.77R
6HR MIN TEMP:  44; 6HR MAX TEMP:  52; 6HR PCP:  0.19;

RENSSELAER +   RAIN      45  43  93 E13       29.78R
VALPARAISO     LGT RAIN  42  38  85 E12       29.81R
6HR MIN TEMP:  42; 6HR MAX TEMP:  44; 6HR PCP:  0.05;


$$

LMZ046-743>745-251300-
SOUTHERN LAKE MICHIGAN

STATION/POSITION TIME  TEMP    WIND        PRES    WAVE
                       AIR SEA DIR/SP/G            HT
                 (UTC) (F)     (DEG/KT/KT) (MB)    (FT)
BURNS HARBOR     1200   45     100/ 14/ 20 1009.5F
MICHIGAN CITY    1200   45      80/ 14/ 18   N/A
5NW MICH CITY    1200   45 44  110/ 16/ 19   N/A     3

$$

INZ004-005-014>016-021>024-251300-
NORTH CENTRAL INDIANA

CITY           SKY/WX    TMP DP  RH WIND       PRES   REMARKS
GOSHEN         CLOUDY    42  37  82 E13       29.85S
6HR MIN TEMP:  42; 6HR MAX TEMP:  44; 6HR PCP:  0.04;

LOGANSPORT +   LGT RAIN  43  37  81 E10       29.79R
PERU/GRISSOM   CLOUDY    45  41  87 E12       29.78F
6HR MIN TEMP:  44; 6HR MAX TEMP:  53; 6HR PCP:  0.19;

ROCHESTER +    LGT RAIN  45  37  76 E18G25    29.81R
SOUTH BEND     CLOUDY    44  37  76 E9        29.85R
6HR MIN TEMP:  44; 6HR MAX TEMP:  45; 6HR PCP: TRACE;

WARSAW +       CLOUDY    41  36  81 E15       29.84S

$$

INZ006>009-017-018-025>027-251300-
NORTHEAST INDIANA

CITY           SKY/WX    TMP DP  RH WIND       PRES   REMARKS
ANGOLA *+      CLOUDY    39  37  93 E13       29.87F
AUBURN +       CLOUDY    41  36  81 E10G16    29.88F
FORT WAYNE     CLOUDY    42  36  79 E22       29.86R
6HR MIN TEMP:  41; 6HR MAX TEMP:  49;

HUNTINGTON +   DRIZZLE   41  35  79 E10G18    29.83F
6HR MIN TEMP:  41; 6HR MAX TEMP:  49;


$$

INZ028-029-035-036-043>045-051>053-251300-
WEST CENTRAL INDIANA

CITY           SKY/WX    TMP DP  RH WIND       PRES   REMARKS
CRAWFORDSVL +  CLOUDY    46  41  81 E12       29.74S
6HR MIN TEMP:  46; 6HR MAX TEMP:  51; 6HR PCP:  0.13;

GREENCASTLE +  CLOUDY    46  43  87 E12       29.74S
LAFAYETTE      CLOUDY    47  44  90 E12       29.73F
6HR MIN TEMP:  47; 6HR MAX TEMP:  52; 6HR PCP:  0.13;

TERRE HAUTE    CLOUDY    50  46  86 E9        29.71F
6HR MIN TEMP:  50; 6HR MAX TEMP:  53; 6HR PCP:  0.05;


$$

INZ030>032-037>040-046>048-054>057-064-065-251300-
CENTRAL INDIANA

CITY           SKY/WX    TMP DP  RH WIND       PRES   REMARKS
CP ATTERBURY + CLOUDY    48  45  87 E6        29.77S
COLUMBUS       CLOUDY    48  41  76 E9        29.77S
FISHERS *+     CLOUDY    46  45  93 E6        29.78R
FRANKFORT +    RAIN      47  47 100 E10       29.78R
6HR MIN TEMP:  47; 6HR MAX TEMP:  53; 6HR PCP:  0.03;

GREENWOOD *+   CLOUDY    46  43  87 E9        29.77F
INDIANAPOLIS   LGT RAIN  48  44  86 E14G21    29.75S FOG
6HR MIN TEMP:  48; 6HR MAX TEMP:  55; 6HR PCP:  0.10;

-EAGLE CREEK   CLOUDY    48  44  86 SE6       29.76S
6HR MIN TEMP:  48; 6HR MAX TEMP:  54; 6HR PCP:  0.02;

KOKOMO *+      CLOUDY    45  39  81 E14       29.78F
6HR MIN TEMP:  45; 6HR MAX TEMP:  52; 6HR PCP:  0.16;

MARION +       LGT RAIN  45  38  77 E9        29.82S
MT COMFORT *+  CLOUDY    48  37  66 SE8       29.79R
SHELBYVILLE    LGT RAIN  50  42  74 E13       29.76F
6HR MIN TEMP:  50; 6HR MAX TEMP:  56; 6HR PCP:  0.05;

ZIONSVILLE +   LGT RAIN  47  43  84 E7        29.78S
6HR MIN TEMP:  47; 6HR MAX TEMP:  52; 6HR PCP:  0.07;


$$

INZ033-034-041-042-049-050-058-059-251300-
EAST CENTRAL INDIANA

CITY           SKY/WX    TMP DP  RH WIND       PRES   REMARKS
MUNCIE         LGT RAIN  47  40  76 E6        29.80R
6HR MIN TEMP:  47; 6HR MAX TEMP:  52; 6HR PCP:  0.05;


$$

INZ060-061-067>069-081>083-085>088-251300-
SOUTHWEST INDIANA

CITY           SKY/WX    TMP DP  RH WIND       PRES   REMARKS
EVANSVILLE     CLOUDY    53  50  89 E6        29.68S FOG
6HR MIN TEMP:  52; 6HR MAX TEMP:  58; 6HR PCP:  0.20;

HUNTINGBURG *+ CLOUDY    50  45  81 E7        29.70F
6HR MIN TEMP:  50; 6HR MAX TEMP:  55; 6HR PCP:  0.12;

WASHINGTON +   LGT RAIN  51  47  84 SE9       29.69S
6HR MIN TEMP:  51; 6HR MAX TEMP:  55; 6HR PCP:  0.01;


$$

INZ062-063-066-070>080-084-089>092-251300-
SOUTH CENTRAL AND SOUTHEAST INDIANA

CITY           SKY/WX    TMP DP  RH WIND       PRES   REMARKS
BEDFORD +      CLOUDY    50  45  81 E10       29.72
BLOOMINGTON    CLOUDY    50  46  86 E12       29.72F
6HR MIN TEMP:  50; 6HR MAX TEMP:  56; 6HR PCP:  0.03;

MADISON *+     CLOUDY    48  43  81 E6        29.79S
NORTH VERNON + CLOUDY    50  43  76 E8        29.76F
SEYMOUR +      CLOUDY    52  45  76 E9        29.76F

$$




USA.gov is the U.S. government's official web portal to all federal, state and local government web resources and services.